Regional Weather Roundup
Issued by NWS Pendleton, OR

Home | Current Version | Previous Version | Text Only | Print | Product List | Glossary On
Versions: 1 2 3 4 5 6 7 8 9 10 11 12 13 14 15 16 17 18 19 20 21 22 23 24 25 26 27 28 29 30 31 32 33 34 35 36 37 38 39 40 41 42 43 44 45 46 47 48 49 50
862
ASUS46 KPDT 121825
RWRPDT
PENDLETON REGIONAL WEATHER ROUNDUP
NATIONAL WEATHER SERVICE PENDLETON OREGON
1000 AM PST FRI FEB 12 2016

NOTE: FAIR INDICATES FEW OR NO CLOUDS BELOW 12,000 FEET WITH NO
SIGNIFICANT WEATHER AND/OR OBSTRUCTIONS TO VISIBILITY.

# INDICATES UNOFFICIAL STATION AND DATA

WAZ520-121910-
EAST SLOPES OF WASHINGTON CASCADES

CITY            SKY/WX      TMP DP  RH  WIND    PRES   REMARKS
#BUMPING DAM    N/A         33  N/A N/A E7      N/A
#CLE ELUM HS    N/A         38  36  92  CALM    30.11S
#CLE ELUM 2NW   N/A         37  37  100 CALM    N/A
#CLE ELUM LAKE  N/A         36  36  100 CALM    30.19S
#CLIFFDEL 2NW   N/A         36  36  100 CALM    N/A
#GLENWOOD       N/A         39  39  100 CALM    30.23R
#MANASTASH CYN  N/A         37  34  89  CALM    30.09F
#NELSON         N/A         N/A N/A N/A CALM    30.12
#NELSON 3SW     N/A         35  34  96  CALM    30.40S
#NILE           N/A         36  35  96  CALM    29.47R
#RONALD 2NW     N/A         37  N/A N/A CALM    30.00S
#TEANAWAY 4NE   N/A         37  37  100 CALM    N/A
#TROUT LAKE 1NE N/A         38  37  96  CALM    30.22F
#TROUT LAKE 1E  N/A         36  36  100 CALM    30.14F
$$

WAZ521-121910-
SIMCOE HIGHLANDS

CITY            SKY/WX      TMP DP  RH  WIND    PRES   REMARKS
#BICKLETON HS   N/A         45  45  100 SW5     N/A
#CENTERVILLE 1SWN/A         41  39  93  E2      30.19S
#GOLDENDALE     N/A         42  40  93  CALM    N/A
#GOLDENDALE 1NE N/A         42  38  86  W1      N/A
#GOODNOE HILLS  N/A         46  41  83  W10     30.09F
#LYLE 6NE       N/A         42  41  96  CALM    30.19S
$$

WAZ026-121910-
KITTITAS VALLEY

CITY            SKY/WX      TMP DP  RH  WIND    PRES   REMARKS
ELLENSBURG AP   FOG         37  34  89  CALM    30.17S VSB 1/4
#ELLENSBURG CWU N/A         36  35  96  CALM    30.17F
#ELLENSBURG 3NE N/A         35  34  96  CALM    30.16F
#ELLENSBURG     N/A         39  39  100 CALM    N/A
#ELLENSBURG 1E  N/A         35  N/A N/A CALM    N/A
#KITTITAS 4N    N/A         38  35  89  CALM    30.20S
#KITTITAS 3S    N/A         33  32  96  CALM    30.22S
#THORP 6N       N/A         37  36  96  CALM    30.23S
$$

WAZ027-121910-
YAKIMA VALLEY

CITY            SKY/WX      TMP DP  RH  WIND    PRES   REMARKS
SUNNYSIDE AP    PTCLDY      47  42  83  SE5     30.20S
YAKIMA AIRPORT  CLOUDY      44  40  86  W5      30.19F FOG
YAKIMA-VAGABOND CLOUDY      40  38  92  W2      30.16S FOG
6HR MIN TEMP:   39; 6HR MAX TEMP:   41;

#DONALD 2NE     N/A         46  39  76  SE1     29.03F
#GRANDVIEW      N/A         47  44  89  E3      30.22F
#MABTON         N/A         43  42  96  SW5     30.19F
#MOXEE 2E       N/A         43  42  96  CALM    30.12F
#NACHES 2SW     N/A         40  39  96  CALM    30.17F
#OUTLOOK DOT    N/A         N/A N/A N/A CALM    N/A
#SELAH 8E       N/A         42  42  100 W3      N/A
#TERRACE HTS    N/A         43  42  96  CALM    30.18F
#TOPPENISH      N/A         42  41  96  CALM    30.13S
#WEST VALLEY    N/A         41  40  96  CALM    30.20S
#W YAKIMA       N/A         41  40  96  NW1     30.22F
#WHITE SWAN 5E  N/A         43  42  96  CALM    30.22S
#WILEY CITY 3W  N/A         40  37  89  CALM    30.14F
$$

WAZ028-121910-
LOWER COLUMBIA BASIN...WASHINGTON

CITY            SKY/WX      TMP DP  RH  WIND    PRES   REMARKS
HANFORD         N/A         40  39  96  N2      30.20S FOG
6HR MIN TEMP:   37; 6HR MAX TEMP:   40;

PASCO           MOCLDY      45  42  89  E9      30.22F
6HR MIN TEMP:   38; 6HR MAX TEMP:   45; 6HR PCP:  TRACE;

PROSSER AWOS    N/A         48  43  83  S6      30.22F
RICHLAND AWOS   PTCLDY      46  44  93  CALM    30.22F
#BENTON CITY    N/A         48  43  83  SW2     30.12F
#CONNELL 5N     N/A         41  41  100 E2      30.22F
#ELTOPIA 6NW    N/A         42  42  100 E7      29.15F
#KAHLOTUS       N/A         41  40  96  SW5     30.22S
#KENNEWICK 3S   N/A         46  44  93  CALM    30.21F
#PATERSON       N/A         44  42  93  CALM    30.21F
#PROSSER        N/A         44  41  89  S7      30.21S
#SAGEMOOR 2W    N/A         43  42  96  NE6     30.05F
#TOUCHET 2S     N/A         43  42  96  SE2     30.22S
#WEST PASCO     N/A         46  44  93  E1      30.22F
$$

WAZ029-121910-
FOOTHILLS OF THE BLUES...WASHINGTON

CITY            SKY/WX      TMP DP  RH  WIND    PRES   REMARKS
WALLA WALLA AP  CLOUDY      43  40  89  N3      30.21F
6HR MIN TEMP:   40; 6HR MAX TEMP:   43; 6HR PCP:  TRACE;

#CLYDE 6NW      N/A         42  41  96  SE5     30.22S
#DAYTON SCHOOL  N/A         41  37  86  W1      30.20S
#LOWDEN 2SE     N/A         45  43  93  E2      30.18F
#PLEASANT VIEW 1N/A         40  39  96  SE3     30.26
#PRESCOTT       N/A         44  43  96  CALM    30.22F
#WHITMAN COLLEGEN/A         44  41  89  SE3     30.28F
#WAITSBURG 5S   N/A         40  39  96  CALM    30.34S
#WAITSBURG 8N   N/A         41  38  89  E3      30.06S
#WALLA WALLA 5E N/A         45  44  96  W1      N/A
#WALLA WALLA U  N/A         45  42  89  CALM    30.24F
#WHITMAN MISSIONN/A         45  43  93  CALM    30.24S
$$

WAZ030-121910-
BLUE MOUNTAINS...WASHINGTON

CITY            SKY/WX      TMP DP  RH  WIND    PRES   REMARKS
#DIXIE 5SE      N/A         45  40  82  NW5     30.10F
#SKI BLUEWOOD   N/A         44  36  73  S2      30.17F
$$

ORZ009-041-WAZ024-121910-
COLUMBIA RIVER GORGE

CITY            SKY/WX      TMP DP  RH  WIND    PRES   REMARKS
HOOD RIVER AP   CLOUDY      45  45  100 CALM    30.22F
THE DALLES AP   CLOUDY      47  43  86  CALM    30.22F FOG
#ARLINGTON AIRPON/A         45  43  93  NE3     30.22F
#CELILO DOT     N/A         46  43  89  S5      N/A
#LYLE           N/A         46  45  96  CALM    30.24S
#MARYHILL 2W    N/A         45  45  100 CALM    N/A
#MOSIER 1S      N/A         46  44  93  CALM    30.20F
#MURDOCK        N/A         46  45  96  CALM    30.20S
#RUFUS DOT      N/A         45  45  100 CALM    N/A

$$

ORZ510-121910-
NORTH CENTRAL OREGON

CITY            SKY/WX      TMP DP  RH  WIND    PRES   REMARKS
#CHENOWITH 1W   N/A         44  42  93  CALM    N/A
#COW CYN RST AREN/A         43  43  100 S2      N/A
#DUFUR 9E       N/A         41  41  100 W2      30.26S
#GRASS VALLEY 1SN/A         43  42  96  SW6     30.23F
#KENT DOT       N/A         44  40  86  CALM    N/A
#MAUPIN SCHOOL  N/A         46  44  93  CALM    30.22S
#MORO SCHOOL    N/A         44  44  100 W1      30.19R
#SHANIKO 4NW    N/A         51  38  61  S15     30.16S
#TYGH VALLEY 2NEN/A         45  44  96  CALM    30.21S
#WAPANITIA AIRPON/A         45  44  96  CALM    30.22F
#WASCO DOT      N/A         44  43  96  NW1     N/A
#WASCO 5NE      N/A         44  42  93  CALM    30.22S
$$

ORZ511-121910-
CENTRAL OREGON

CITY            SKY/WX      TMP DP  RH  WIND    PRES   REMARKS
BEND AIRPORT    SUNNY       52  37  56  CALM    30.18F
MADRAS AIRPORT  PTCLDY      46  39  76  CALM    30.20F
PRINEVILLE AP   SUNNY       54  37  52  SE8     30.19F
REDMOND AIRPORT SUNNY       52  38  59  E8      30.17F
6HR MIN TEMP:   34; 6HR MAX TEMP:   52;

#ASHWOOD SCHOOL N/A         48  42  80  CALM    30.12F
#BEND 6E        N/A         52  35  52  CALM    30.18F
#BEND 1SW       N/A         47  37  68  SW3     N/A
#BEND-KIM LN    N/A         52  39  61  SW5     30.16F
#LAKE BILLY CHINN/A         43  N/A N/A W2      30.23F
#MADRAS         N/A         46  43  89  S2      N/A
#POWELL BUTTE 3EN/A         49  38  66  E6      N/A
#PRINEVILLE 3N  N/A         48  42  80  CALM    30.21F
#WARM SPRINGS   N/A         48  42  80  CALM    30.16F

$$


ORZ509-121910-
EAST SLOPES OF OREGON CASCADES

CITY            SKY/WX      TMP DP  RH  WIND    PRES   REMARKS
SISTERS AWOS    N/A         46  43  89  CALM    30.13S
#BLUE BOX PASS  N/A         44  N/A N/A S2      N/A
#BLACK BUTTE RNCN/A         44  42  93  CALM    30.21F
#CAMP SHERMAN   N/A         38  36  92  CALM    30.32F
#LA PINE DOT    N/A         51  27  39  S2      N/A
#LA PINE 4NW    N/A         47  33  58  CALM    30.28F
#LAVA BUTTE DOT N/A         49  29  46  S1      N/A
#SISTERS AIRPOR N/A         47  47  100 CALM    30.17S
#SISTERS ODOT   N/A         48  N/A N/A CALM    N/A
#SISTERS 3N     N/A         49  42  77  N3      30.18S
#SUNRIVER       N/A         47  36  65  S1      30.26F
#SUTTLE LK DOT  N/A         41  41  100 W23G35  N/A    WCI 31
#TUMALO 3W      N/A         56  39  53  S1      30.08F
#WANOGA BUTTE D N/A         43  32  65  CALM    N/A

$$

ORZ044-121910-
LOWER COLUMBIA BASIN...OREGON

CITY            SKY/WX      TMP DP  RH  WIND    PRES   REMARKS
HERMISTON       MOCLDY      47  43  86  SE5     30.20F
6HR MIN TEMP:   41; 6HR MAX TEMP:   47; 6HR PCP:  TRACE;

#BOARDMAN SCHOOLN/A         44  42  93  NW2     30.22F
#BOARDMAN 8SW   N/A         47  46  96  N2      30.21F
#ECHO 8SW       N/A         51  51  100 CALM    30.22S
#I-84 EX 198 DOTN/A         45  42  89  NE6     N/A
#IONE SCHOOL    N/A         46  33  60  W1      30.16F
#IRRIGON 4NW    N/A         44  44  100 E2      N/A
#UMATILLA SCHOOLN/A         42  42  100 CALM    30.20F
#UMATILLA       N/A         45  42  89  CALM    30.16F
$$

ORZ507-121910-
NORTHERN FOOTHILLS OF THE BLUES

CITY            SKY/WX      TMP DP  RH  WIND    PRES   REMARKS
PENDLETON AIRPT CLOUDY      43  40  89  CALM    30.19S
6HR MIN TEMP:   39; 6HR MAX TEMP:   43; 6HR PCP:  TRACE;

#ADAMS 3WNW     N/A         42  41  96  CALM    30.22S
#ATHENA         N/A         41  40  96  W1      30.25R
#CAYUSE         N/A         43  41  93  W3      30.22R
#HELIX SCHOOL   N/A         41  40  96  CALM    30.22R
#HELIX 3N       N/A         41  40  96  N2      30.14S
#HELIX 6SW      N/A         42  41  96  S2      30.18S
#HOLDMAN 5SE    N/A         44  42  93  CALM    30.17F
#HOLDMAN 6E     N/A         42  41  96  NW1     30.02F
#M-FREEWATER 5SEN/A         43  41  93  CALM    30.20S
#PENDLETON DNTN N/A         44  40  86  CALM    30.22S
#PDT AQUATIC CTRN/A         45  41  86  CALM    30.19S
#PDT SUNRIDGE   N/A         43  41  93  CALM    30.22R
#PENDLETON 7NW  N/A         43  39  86  SE3     32.08S
#PILOT ROCK     N/A         46  40  79  CALM    30.19S
#TUTUILLA       N/A         45  42  89  CALM    30.22S
#UMAPINE 2E     N/A         45  43  93  NE2     30.19S
#WESTON SCHOOL  N/A         43  41  93  CALM    30.14F

$$

ORZ508-121910-
SOUTHERN FOOTHILLS OF THE BLUES

CITY            SKY/WX      TMP DP  RH  WIND    PRES   REMARKS
#CONDON SCHOOL  N/A         41  40  96  SW5     30.12S
#CONDON 5W      N/A         47  40  76  SW5     30.14S
#FOSSIL SCHOOL  N/A         50  46  86  CALM    30.10F
#HEPPNER EOC    N/A         47  42  83  SE5     30.14F
#HEPPNER 4NE    N/A         46  45  96  CALM    30.21F
#LEXINGTON 2SE  N/A         49  44  83  SE3     30.14F
#MIKKALO        N/A         45  44  96  CALM    30.27S
#OLEX 4N        N/A         45  44  96  CALM    30.17S
#RUGGS 5NE      N/A         50  49  96  VRB1    30.33S
#RUGGS 2SW      N/A         45  42  89  E1      30.24S

$$

ORZ502-503-121910-
BLUE MOUNTAINS

CITY            SKY/WX      TMP DP  RH  WIND    PRES   REMARKS
MEACHAM         MOCLDY      44  32  62  CALM    30.19F
6HR MIN TEMP:   35; 6HR MAX TEMP:   45;

#BATTLE MTN DOT N/A         35  35  100 S5      N/A
#LADD CYN SMT   N/A         37  26  64  SE21    N/A    WCI 26
#LADD CREEK ODOTN/A         42  11  28  S8      N/A
#LONG CREEK HS  N/A         44  40  86  CALM    N/A
#N POWDER DOT   N/A         36  32  85  W6      N/A
#PIKES PEAK     N/A         51  33  50  S8      27.99S
#TOLLGATE       N/A         41  32  70  S1      30.03F
#TROY SCHOOL    N/A         40  37  89  S1      30.15F
#UKIAH          N/A         35  33  92  CALM    30.20S
#WESTON 4E      N/A         47  34  60  E9      30.16S
$$

ORZ505-121910-
JOHN DAY BASIN

CITY            SKY/WX      TMP DP  RH  WIND    PRES   REMARKS
JOHN DAY        CLOUDY      47  35  63  E3      30.22S
#DAYVILLE SCHOOLN/A         42  34  73  CALM    30.18S
#MITCHELL       N/A         47  47  100 CALM    30.33S
#MITCHELL 8NW   N/A         49  39  68  CALM    30.40S
#MONUMENT HS    N/A         44  35  70  N3      30.15S
#MT. VERNON 5SE N/A         50  36  58  E3      30.17S
#WINLOCK        N/A         49  40  71  NW5     30.15S
$$

ORZ506-121910-
OCHOCO AND JOHN DAY HIGHLANDS

CITY            SKY/WX      TMP DP  RH  WIND    PRES   REMARKS
#HORSE RIDGE DO N/A         52  33  48  SE7     N/A
#KEYES SMT DOT  N/A         51  36  56  S8      N/A
#PAULINA SCHOOL N/A         43  38  82  CALM    30.19R
#PINE MTN OBS   N/A         44  33  65  S7      N/A
#PRAIRIE CITY   N/A         43  36  76  CALM    30.19S
#SENECA         N/A         29  N/A N/A CALM    N/A
#SENECA 9NW     N/A         31  28  88  CALM    30.32S
$$

ORZ049-121910-
GRANDE RONDE VALLEY

CITY            SKY/WX      TMP DP  RH  WIND    PRES   REMARKS
LA GRANDE       CLOUDY      45  28  51  S18G30  30.23R WCI 37
#COVE           N/A         41  36  82  CALM    30.25S
#COVE SCHOOL    N/A         41  34  76  CALM    30.23S
#COVE 6NW       N/A         39  31  73  S8      30.26S
#ELGIN 3N       N/A         46  31  56  S5      30.20F
#ELGIN 1E       N/A         44  35  70  CALM    N/A
#IMBLER SCHOOL  N/A         44  33  65  SE9     30.20R
#ISLAND CITY 4N N/A         52  51  96  CALM    30.17R
#LADD CYN DOT   N/A         43  32  65  S31     N/A    WCI 32
#UNION 1S       N/A         41  32  70  E23G33  30.21F WCI 31
$$

ORZ050-121910-
WALLOWA COUNTY

CITY            SKY/WX      TMP DP  RH  WIND    PRES   REMARKS
JOSEPH AIRPORT  CLOUDY      N/A N/A N/A CALM    30.21F FOG
#ENTERPRISE AP  N/A         32  30  92  CALM    30.13F
#ENTERPRISE HS  N/A         34  33  96  CALM    30.22F
#IMNAHA SCHOOL  N/A         44  41  89  N5      30.19F
#IMNAHA 10S     N/A         53  34  48  SE3     30.16F
#JOSEPH 3N      N/A         32  29  89  CALM    30.22F
#JOSEPH 3W      N/A         35  30  82  CALM    30.01F
#LOSTINE        N/A         34  32  92  CALM    30.14F
#MT HOWARD 8000 N/A         40  29  64  SW6     30.22F
#PROMISE 1S     N/A         37  31  79  N1      30.40F
#WALLOWA SCHOOL N/A         33  32  96  CALM    30.22F



$$



USA.gov is the U.S. government's official web portal to all federal, state and local government web resources and services.